Location: Unspecified
(0.0000°N, 0.0000°E)
Time: 00:57:08
(UTC+01:00)

NOAA 12 - Pass Details

Date: 20 June 2018
Orbit: 796 x 815 km, 98.5° (Epoch: 13 November)

Event Time Altitude Azimuth Distance (km) Brightness Sun altitude
Rises 20:31:57 0° 162° (SSE) 3,305 6.9 -6.9°
Reaches altitude 10° 20:34:18 10° 158° (SSE) 2,376 6.1 -7.5°
Maximum altitude 20:39:29 63° 78° (ENE) 890 4.1 -8.7°
Drops below altitude 10° 20:44:41 10° 357° (N) 2,378 6.9 -9.9°
Sets 20:47:02 0° 354° (N) 3,309 7.7 -10.4°
